User: anonymous   Login
Location: Owatonna
(44.0840°N, 93.2260°W)
Time: 14:33:13
(UTC-06:00)
Language:

Cosmos 839 Rocket - Orbit

View from above orbital plane
View from above orbital plane
View from above satellite
View from above satellite

Ground track
Ground track

The orbit data is extracted from the following two-line orbital elements,

1  9013U 76067B   16039.90505876 -.00000043 +00000-0 +44176-4 0  9992
2  9013 065.8637 246.0893 0721330 266.7809 194.4966 12.35319457785353
Epoch (UTC): 08 February 2016 21:43:17
Eccentricity: 0.0721330
inclination: 65.8637°
perigee height: 956 km
apogee height: 2096 km
right ascension of ascending node: 246.0893°
argument of perigee: 266.7809°
revolutions per day: 12.35319457
mean anomaly at epoch: 194.4966°
orbit number at epoch: 78535

The dashed part of the orbit path shows where the satellite is in the earth's shadow,  

DLR